Regional Weather Roundup
Issued by NWS

Home | Current Version | Previous Version | Graphics & Text | Print | Product List | Glossary On
Versions: 1 2 3 4 5 6 7 8 9 10 11 12 13 14 15 16 17 18 19 20 21 22 23 24 25 26 27 28 29 30 31 32 33 34 35 36 37 38 39 40 41 42 43 44 45 46 47 48 49 50
000
ASUS43 KIND 241959
RWRIN

WEATHER ROUNDUP FOR INDIANA
NATIONAL WEATHER SERVICE INDIANAPOLIS IN
400 PM EDT TUE MAY 24 2016

NOTE: "FAIR" INDICATES FEW OR NO CLOUDS BELOW 12,000 FEET WITH NO
SIGNIFICANT WEATHER AND/OR OBSTRUCTIONS TO VISIBILITY.

* - STATION DOES NOT REPORT WEATHER SUCH AS PRECIPITATION OR FOG.

+ - STATION NOT QUALITY CONTROLLED BY THE NATIONAL WEATHER SERVICE.
    USE DATA WITH CAUTION...ESPECIALLY DEWPOINT AND RELATIVE
    HUMIDITY OBSERVATIONS.

INZ001>003-010>013-019-020-242100-
NORTHWEST INDIANA

CITY           SKY/WX    TMP DP  RH WIND       PRES   REMARKS
GARY /AIRPORT/ MOSUNNY   88  57  35 SW16      29.96F
RENSSELAER +   SUNNY     86  39  19 S14       29.98F

$$

LMZ046-743>745-242100-
SOUTHERN LAKE MICHIGAN

STATION/POSITION TIME  TEMP    WIND        PRES    WAVE
                       AIR SEA DIR/SP/G            HT
                 (UTC) (F)     (DEG/KT/KT) (MB)    (FT)
BURNS HARBOR     1900   82     210/ 18/ 21 1015.2F
MICHIGAN CITY    1900   81     190/ 16/ 18   N/A
5NW MICH CITY    1900   70 60  260/  4/  6   N/A     1

$$

INZ004-005-014>016-021>024-242100-
NORTH CENTRAL INDIANA

CITY           SKY/WX    TMP DP  RH WIND       PRES   REMARKS
ELKHART        SUNNY     84  57  39 SW14      30.00F
GOSHEN         SUNNY     84  49  29 SW13G20   30.00F
SOUTH BEND     SUNNY     84  48  28 SW9G23    29.99F

$$

INZ006>009-017-018-025>027-242100-
NORTHEAST INDIANA

CITY           SKY/WX    TMP DP  RH WIND       PRES   REMARKS
ANGOLA *+      SUNNY     82  52  34 SW8       30.02F
FORT WAYNE     MOSUNNY   83  46  27 S13       30.04F

$$

INZ028-029-035-036-043>045-051>053-242100-
WEST CENTRAL INDIANA

CITY           SKY/WX    TMP DP  RH WIND       PRES   REMARKS
CRAWFORDSVL +  SUNNY     82  52  34 S10G21    30.01F
GREENCASTLE +  SUNNY     81  61  50 S8        30.03F
LAFAYETTE      SUNNY     83  48  29 S13       29.99F
TERRE HAUTE    SUNNY     83  54  36 S14G23    30.02F

$$

INZ030>032-037>040-046>048-054>057-064-065-242100-
CENTRAL INDIANA

CITY           SKY/WX    TMP DP  RH WIND       PRES   REMARKS
ANDERSON       SUNNY     81  45  28 S6        30.07
COLUMBUS       SUNNY     81  50  34 S9        30.05F
INDIANAPOLIS   MOSUNNY   82  54  37 SW6       30.02F
-EAGLE CREEK   SUNNY     82  51  34 SW9       30.02F
KOKOMO *+      SUNNY     82  52  34 SW12G24   30.01F
SHELBYVILLE    SUNNY     83  50  31 SE5       30.04F

$$

INZ033-034-041-042-049-050-058-059-242100-
EAST CENTRAL INDIANA

CITY           SKY/WX    TMP DP  RH WIND       PRES   REMARKS
MUNCIE         SUNNY     83  42  23 SW8       30.06F

$$

INZ060-061-067>069-081>083-085>088-242100-
SOUTHWEST INDIANA

CITY           SKY/WX    TMP DP  RH WIND       PRES   REMARKS
EVANSVILLE     MOSUNNY   81  56  42 S9G17     30.06S
HUNTINGBURG *+ SUNNY     82  57  42 S14       30.05F

$$

INZ062-063-066-070>080-084-089>092-242100-
SOUTH CENTRAL AND SOUTHEAST INDIANA

CITY           SKY/WX    TMP DP  RH WIND       PRES   REMARKS
BLOOMINGTON    SUNNY     83  52  34 SW10      30.04F
MADISON *+     SUNNY     82  39  21 SE3       30.09F
SEYMOUR +      SUNNY     84  52  32 S9        30.04F

$$




USA.gov is the U.S. government's official web portal to all federal, state and local government web resources and services.